Notices

What's New in latest Release from April 7th, 2021:

- Updated Glossary, including Speed of Maximum Gust, and Total Hourly Precipitation

- Updated national and regional climate services offices contacts and prices information

- Addition of station inventory lists for 1981-2010, 1971-2000, and 1961-1990 Normals.

If you haven't already, please take our survey and provide feedback about our website: https://eccc.sondage-survey.ca/f/LanguageSelection.aspx?s=442ca660-fcf1-47c0-95a9-59707d6fd709

Hourly Data Report for July 24, 2003

TORONTO CITY
ONTARIO

43°40'00.000" N
79°24'00.000" W
112.50 m
6158355
71508
XTO

Download Data

Hourly Data (July 2003)
Hourly Data Report for July 24, 2003
TIME
LST
Temp Definition
°C
Dew Point Definition
°C
Rel Hum Definition
%
Precip. Amount Definition
mm

Wind Dir Definition
10's deg

Wind Spd Definition
km/h
Visibility Definition
km
Stn Press Definition
kPa
Hmdx Definition


Wind Chill Definition


Weather Definition


00:00 20.0 15.1 73   LegendMM LegendMM LegendMM 99.82     LegendNANA
01:00 19.8 15.4 76   LegendMM LegendMM LegendMM 99.79     LegendNANA
02:00 19.5 15.3 77   LegendMM LegendMM LegendMM 99.76     LegendNANA
03:00 19.6 16.0 80   LegendMM LegendMM LegendMM 99.80     LegendNANA
04:00 19.6 16.4 82   LegendMM LegendMM LegendMM 99.78     LegendNANA
05:00 19.2 16.2 83   LegendMM LegendMM LegendMM 99.81     LegendNANA
06:00 19.1 16.3 84   LegendMM LegendMM LegendMM 99.87     LegendNANA
07:00 19.4 16.5 83   LegendMM LegendMM LegendMM 99.89     LegendNANA
08:00 20.1 16.9 82   LegendMM LegendMM LegendMM 99.94 25   LegendNANA
09:00 21.9 17.0 74   LegendMM LegendMM LegendMM 99.97 27   LegendNANA
10:00 23.8 17.9 70   LegendMM LegendMM LegendMM 100.01 30   LegendNANA
11:00 23.2 16.9 68   LegendMM LegendMM LegendMM 100.01 28   LegendNANA
12:00 23.0 17.4 71   LegendMM LegendMM LegendMM 100.01 29   LegendNANA
13:00 22.1 16.6 71   LegendMM LegendMM LegendMM 100.04 27   LegendNANA
14:00 23.6 17.0 67   LegendMM LegendMM LegendMM 100.06 29   LegendNANA
15:00 23.3 16.2 64   LegendMM LegendMM LegendMM 100.07 28   LegendNANA
16:00 25.6 16.8 58   LegendMM LegendMM LegendMM 100.06 31   LegendNANA
17:00 22.1 16.5 71   LegendMM LegendMM LegendMM 100.13 27   LegendNANA
18:00 21.1 16.4 75   LegendMM LegendMM LegendMM 100.17 26   LegendNANA
19:00 20.3 16.5 79   LegendMM LegendMM LegendMM 100.23 25   LegendNANA
20:00 19.7 16.4 81   LegendMM LegendMM LegendMM 100.28     LegendNANA
21:00 20.3 16.9 81   LegendMM LegendMM LegendMM 100.36 26   LegendNANA
22:00 19.0 16.2 84   LegendMM LegendMM LegendMM 100.37     LegendNANA
23:00 18.5 15.9 85   LegendMM LegendMM LegendMM 100.39     LegendNANA

Notes on Data Quality.

Legend

  • E = Estimated
  • M = Missing
  • NA = Not Available*
  • [empty] = Indicates an unobserved value
Date modified: